軌道要素
Epoch 2003 Aug. 29.0 TT = JDT 2452880.5
T 2003 Aug. 27.99177 TT Kobayashi
q 1.2742720 (2000.0) P Q
n 0.06703467 Peri. 257.24906 +0.14497136 +0.98198129
a 6.0016373 Node 22.21566 -0.73686283 +0.18891785
e 0.7876793 Incl. 18.70087 -0.66031544 +0.00477442
P 14.7
From 138 observations 1944 May 30-2003 Sept. 8, mean residual 0".7.
Nongravitational parameters A1 = +0.02, A2 = -0.0111.
|